FW6253 Weather Reports


Display with metric or nautical units.
time (UTC)temp
F
wind
direction
speed
MPH
gust
MPH
rain 1hr
in
rain 24hr
in
rain mn
in
humidity
%
barometer
mb
20260905104052 78 140 0.0 4.0 0.00 0.00 0.00 91 1012.5
20260905103552 78 0 0.0 3.0 0.00 0.00 0.00 91 1012.5
20260905103104 78 0 0.0 3.0 0.00 0.00 0.00 91 1012.4
20260905102551 78 0 0.0 3.0 0.00 0.00 0.00 91 1012.3
20260905102051 78 139 0.0 3.0 0.00 0.00 0.00 91 1012.3
20260905101606 78 0 1.0 3.0 0.00 0.00 0.00 91 1012.3
20260905101051 79 0 0.0 3.0 0.00 0.00 0.00 91 1012.4
20260905100553 79 0 0.0 2.0 0.00 0.00 0.00 91 1012.4
20260905100123 79 0 0.0 2.0 0.00 0.00 0.00 91 1012.4
20260905095553 79 0 0.0 2.0 0.00 0.00 0.00 90 1012.3
20260905095053 79 0 0.0 3.0 0.00 0.00 0.00 90 1012.2
20260905094600 79 0 0.0 4.0 0.00 0.00 0.00 90 1012.2
20260905094053 79 138 0.0 4.0 0.00 0.00 0.00 90 1012.2
20260905093552 79 138 0.0 4.0 0.00 0.00 0.00 90 1012.3
20260905093055 79 138 0.0 3.0 0.00 0.00 0.00 90 1012.2
20260905092552 79 0 0.0 3.0 0.00 0.00 0.00 90 1012.2
20260905092051 79 119 0.0 2.0 0.00 0.00 0.00 90 1012.3
20260905091613 79 0 0.0 2.0 0.00 0.00 0.00 90 1012.4
20260905091057 79 119 0.0 4.0 0.00 0.00 0.00 90 1012.4
20260905090554 79 119 0.0 4.0 0.00 0.00 0.00 90 1012.4
20260905090057 79 119 0.0 4.0 0.00 0.00 0.00 90 1012.4
20260905085552 79 118 0.0 4.0 0.00 0.00 0.00 89 1012.3
20260905085051 79 118 0.0 6.0 0.00 0.00 0.00 89 1012.3
20260905084601 79 0 1.0 6.0 0.00 0.00 0.00 89 1012.3
20260905084052 79 128 0.0 6.0 0.00 0.00 0.00 89 1012.2
20260905083553 79 117 1.0 5.0 0.00 0.00 0.00 89 1012.3
20260905083114 79 0 0.0 4.0 0.00 0.00 0.00 89 1012.4
20260905082551 79 121 0.0 5.0 0.00 0.00 0.00 89 1012.5
20260905082053 79 137 1.0 5.0 0.00 0.00 0.00 88 1012.5
20260905081612 79 120 1.0 4.0 0.00 0.00 0.00 88 1012.4
20260905081053 79 131 0.0 4.0 0.00 0.00 0.00 88 1012.5
20260905080553 79 132 1.0 5.0 0.00 0.00 0.00 88 1012.6
20260905080059 79 0 1.0 5.0 0.00 0.00 0.00 88 1012.6
20260905075552 79 163 1.0 7.0 0.00 0.00 0.00 88 1012.5
20260905075051 79 0 1.0 7.0 0.00 0.00 0.00 88 1012.6
20260905074601 79 126 1.0 5.0 0.00 0.00 0.00 87 1012.7
20260905074052 79 157 1.0 7.0 0.00 0.00 0.00 87 1012.8
20260905073551 80 122 1.0 7.0 0.00 0.00 0.00 87 1012.8
20260905073104 80 0 1.0 5.0 0.00 0.00 0.00 87 1012.9
20260905072558 80 185 1.0 6.0 0.00 0.00 0.00 87 1012.9
20260905072057 80 164 1.0 7.0 0.00 0.00 0.00 86 1012.9
20260905071615 80 144 0.0 7.0 0.00 0.00 0.00 86 1012.9
20260905071053 80 0 1.0 6.0 0.00 0.00 0.00 86 1013.0
20260905070553 80 0 2.0 6.0 0.00 0.00 0.00 86 1013.1
20260905070105 80 134 1.0 5.0 0.00 0.00 0.00 85 1013.1
20260905065553 80 0 0.0 5.0 0.00 0.00 0.00 85 1013.2
20260905065051 80 148 1.0 5.0 0.00 0.00 0.00 85 1013.1
20260905064621 80 173 0.0 7.0 0.00 0.00 0.00 84 1013.1
20260905064053 80 0 1.0 8.0 0.00 0.00 0.00 84 1013.0
20260905063552 80 192 0.0 8.0 0.00 0.00 0.00 84 1013.1
20260905063100 80 202 2.0 8.0 0.00 0.00 0.00 84 1013.1
20260905062551 80 171 1.0 7.0 0.00 0.00 0.00 84 1013.0
20260905062119 80 0 0.0 7.0 0.00 0.00 0.00 84 1013.1
20260905061608 80 124 1.0 7.0 0.00 0.00 0.00 83 1013.2
20260905061056 80 0 0.0 5.0 0.00 0.00 0.00 83 1013.2
20260905060600 80 184 1.0 5.0 0.00 0.00 0.00 83 1013.1
20260905060105 80 0 2.0 5.0 0.00 0.00 0.00 82 1013.1
20260905055554 80 200 0.0 5.0 0.00 0.00 0.00 82 1013.1
20260905055057 81 0 2.0 6.0 0.00 0.00 0.00 82 1013.0
20260905054709 81 219 2.0 11.0 0.00 0.00 0.00 81 1013.0
20260905054054 81 144 1.0 11.0 0.00 0.00 0.00 81 1013.1
20260905053552 81 151 0.0 8.0 0.00 0.00 0.00 80 1013.1
20260905053102 81 157 2.0 8.0 0.00 0.00 0.00 80 1013.1
20260905052551 81 150 1.0 14.0 0.00 0.00 0.00 79 1013.1
20260905052056 81 0 2.0 14.0 0.00 0.00 0.00 79 1013.2
20260905051609 81 210 2.0 10.0 0.00 0.00 0.00 78 1013.1
20260905051051 81 143 2.0 10.0 0.00 0.00 0.00 77 1013.1
20260905050554 82 141 4.0 9.0 0.00 0.00 0.00 76 1013.0
20260905050105 82 182 2.0 9.0 0.00 0.00 0.00 76 1013.1
20260905045552 82 147 3.0 9.0 0.00 0.00 0.00 75 1013.2
20260905045054 82 127 3.0 9.0 0.00 0.00 0.00 74 1013.1
20260905044607 82 148 3.0 8.0 0.00 0.00 0.00 74 1013.1
20260905044053 82 153 1.0 7.0 0.00 0.00 0.00 73 1013.1
20260905043551 82 167 2.0 8.0 0.00 0.00 0.00 73 1013.2
20260905043105 82 134 3.0 8.0 0.00 0.00 0.00 73 1013.2
20260905042554 82 161 2.0 8.0 0.00 0.00 0.00 73 1013.1
20260905042051 82 120 1.0 7.0 0.00 0.00 0.00 72 1013.2
20260905041604 82 116 0.0 7.0 0.00 0.00 0.00 72 1013.2
20260905041053 82 111 2.0 7.0 0.00 0.00 0.00 72 1013.1
20260905040551 83 123 1.0 7.0 0.00 0.00 0.00 71 1013.1
20260905040112 83 135 1.0 6.0 0.00 0.00 0.00 71 1013.0
20260905035553 83 138 1.0 7.0 0.00 0.00 0.00 71 1013.0
20260905035054 83 134 2.0 10.0 0.00 0.00 0.00 71 1012.9
20260905034607 83 150 2.0 10.0 0.00 0.00 0.00 71 1013.0
20260905034057 83 114 3.0 8.0 0.00 0.00 0.00 70 1013.1
20260905033554 83 134 2.0 8.0 0.00 0.00 0.00 70 1012.9
20260905033102 83 132 2.0 9.0 0.00 0.00 0.00 70 1012.8
20260905032558 83 113 1.0 9.0 0.00 0.00 0.00 70 1012.8
20260905032051 83 104 2.0 9.0 0.00 0.00 0.00 69 1012.7
20260905031600 83 143 2.0 8.0 0.00 0.00 0.00 69 1012.6
20260905031053 83 129 3.0 8.0 0.00 0.00 0.00 69 1012.7
20260905030551 84 117 1.0 7.0 0.00 0.00 0.00 69 1012.7
20260905030057 84 132 2.0 11.0 0.00 0.00 0.00 69 1012.7
20260905025551 84 139 1.0 11.0 0.00 0.00 0.00 69 1012.6
20260905025051 84 146 4.0 11.0 0.00 0.00 0.00 69 1012.4
20260905024612 84 149 2.0 9.0 0.00 0.00 0.00 69 1012.4
20260905024052 84 136 3.0 9.0 0.00 0.00 0.00 69 1012.3
20260905023551 84 107 1.0 7.0 0.00 0.00 0.00 69 1012.3
20260905023104 84 100 1.0 7.0 0.00 0.00 0.00 69 1012.2
20260905022552 84 112 1.0 3.0 0.00 0.00 0.00 69 1012.1
20260905022052 85 0 0.0 4.0 0.00 0.00 0.00 68 1012.1
20260905021559 85 114 1.0 4.0 0.00 0.00 0.00 68 1012.0
20260905021051 85 92 1.0 4.0 0.00 0.00 0.00 68 1012.0
20260905020551 85 88 1.0 6.0 0.00 0.00 0.00 67 1012.0
20260905020059 85 92 0.0 6.0 0.00 0.00 0.00 67 1012.0
20260905015553 85 96 1.0 6.0 0.00 0.00 0.00 66 1011.9
20260905015052 86 112 1.0 7.0 0.00 0.00 0.00 66 1011.8
20260905014603 86 0 1.0 7.0 0.00 0.00 0.00 66 1012.0
20260905014052 86 98 2.0 7.0 0.00 0.00 0.00 65 1012.0
20260905013552 86 96 2.0 9.0 0.00 0.00 0.00 65 1011.9
20260905013103 86 113 2.0 9.0 0.00 0.00 0.00 64 1011.8
20260905012551 87 98 2.0 8.0 0.00 0.00 0.00 63 1011.7
20260905012052 87 113 1.0 6.0 0.00 0.00 0.00 63 1011.6
20260905011605 87 94 2.0 8.0 0.00 0.00 0.00 62 1011.7
20260905011053 88 131 1.0 8.0 0.00 0.00 0.00 60 1011.6
20260905010553 88 80 3.0 8.0 0.00 0.00 0.00 59 1011.5
20260905010107 89 84 0.0 3.0 0.00 0.00 0.00 58 1011.5
20260905005552 89 0 0.0 4.0 0.00 0.00 0.00 57 1011.5
20260905005052 89 0 1.0 6.0 0.00 0.00 0.00 57 1011.4
20260905004603 90 94 1.0 8.0 0.00 0.00 0.00 57 1011.5
20260905004052 90 90 0.0 8.0 0.00 0.00 0.00 57 1011.5
20260905003551 90 84 2.0 8.0 0.00 0.00 0.00 56 1011.4
20260905003100 91 99 1.0 4.0 0.00 0.00 0.00 56 1011.2
20260905002553 91 105 0.0 7.0 0.00 0.00 0.00 57 1011.1
20260905002055 91 111 1.0 7.0 0.00 0.00 0.00 57 1011.1
20260905001605 91 135 0.0 3.0 0.00 0.00 0.00 56 1011.1
20260905001056 91 0 0.0 6.0 0.00 0.00 0.00 57 1011.0
20260905000552 92 102 2.0 7.0 0.00 0.00 0.00 56 1010.9
20260905000106 92 105 2.0 9.0 0.00 0.00 0.00 56 1010.8
20260904235555 92 81 2.0 9.0 0.00 0.00 0.00 56 1010.9
20260904235051 92 78 2.0 8.0 0.00 0.00 0.00 56 1010.9
20260904234605 92 100 1.0 9.0 0.00 0.00 0.00 56 1010.8
20260904234055 92 132 2.0 9.0 0.00 0.00 0.00 56 1010.8
20260904233554 92 130 2.0 8.0 0.00 0.00 0.00 55 1010.8
20260904233107 92 157 1.0 10.0 0.00 0.00 0.00 55 1010.9
20260904232553 92 88 2.0 10.0 0.00 0.00 0.00 56 1010.9
20260904232053 92 109 4.0 10.0 0.00 0.00 0.00 55 1010.8
20260904231607 93 96 2.0 9.0 0.00 0.00 0.00 55 1011.0
20260904231055 93 138 2.0 9.0 0.00 0.00 0.00 56 1010.9
20260904230554 93 90 3.0 9.0 0.00 0.00 0.00 55 1010.9
20260904230057 93 145 3.0 9.0 0.00 0.00 0.00 55 1010.9
20260904225555 93 96 3.0 9.0 0.00 0.00 0.00 55 1010.9
20260904225056 93 92 4.0 9.0 0.00 0.00 0.00 55 1010.9
20260904224606 93 111 2.0 9.0 0.00 0.00 0.00 55 1010.9
20260904224054 93 109 3.0 8.0 0.00 0.00 0.00 52 1011.0
20260904223555 93 150 1.0 9.0 0.00 0.00 0.00 53 1011.1
20260904223103 93 155 3.0 9.0 0.00 0.00 0.00 53 1011.1
20260904222552 93 144 2.0 8.0 0.00 0.00 0.00 54 1011.1
20260904222054 92 0 3.0 9.0 0.00 0.00 0.00 55 1011.1
20260904221608 92 115 2.0 9.0 0.00 0.00 0.00 55 1011.1
20260904221054 92 140 3.0 10.0 0.00 0.00 0.00 54 1011.2
20260904220554 92 115 1.0 10.0 0.00 0.00 0.00 55 1011.2
20260904220104 91 149 1.0 10.0 0.00 0.00 0.00 55 1011.2
20260904215553 91 0 2.0 10.0 0.00 0.00 0.00 56 1011.3
20260904215053 91 126 1.0 9.0 0.00 0.00 0.00 58 1011.5
20260904214559 91 136 2.0 6.0 0.00 0.00 0.00 60 1011.6
20260904214051 91 0 2.0 5.0 0.00 0.00 0.00 59 1011.6
20260904213555 91 0 0.0 8.0 0.00 0.00 0.00 60 1011.7
20260904213104 91 112 1.0 8.0 0.00 0.00 0.00 59 1011.8
20260904212553 91 105 2.0 7.0 0.00 0.00 0.00 59 1011.8
20260904212054 91 157 1.0 5.0 0.00 0.00 0.00 60 1011.8
20260904211604 91 160 2.0 5.0 0.00 0.00 0.00 61 1011.9
20260904211052 91 190 1.0 7.0 0.00 0.00 0.00 60 1012.0
20260904210551 91 121 1.0 7.0 0.00 0.00 0.00 61 1012.2
20260904210104 91 126 1.0 6.0 0.00 0.00 0.00 62 1012.1
20260904205556 91 0 0.0 4.0 0.00 0.00 0.00 62 1012.2
20260904205054 91 0 0.0 4.0 0.00 0.00 0.00 62 1012.2
20260904204600 91 139 0.0 8.0 0.00 0.00 0.00 62 1012.3
20260904204055 91 119 0.0 8.0 0.00 0.00 0.00 62 1012.3
20260904203554 91 136 1.0 7.0 0.00 0.00 0.00 63 1012.5
20260904203059 90 116 1.0 7.0 0.00 0.00 0.00 63 1012.5
20260904202558 90 114 2.0 7.0 0.00 0.00 0.00 62 1012.4
20260904202053 90 138 0.0 5.0 0.00 0.00 0.00 63 1012.5
20260904201600 90 0 1.0 5.0 0.00 0.00 0.00 64 1012.5
20260904201051 90 0 1.0 8.0 0.00 0.00 0.00 64 1012.6
20260904200551 89 115 2.0 8.0 0.00 0.00 0.00 64 1012.7
20260904200115 89 136 2.0 8.0 0.00 0.00 0.00 65 1012.7
20260904195557 89 0 2.0 8.0 0.00 0.00 0.00 67 1012.7
20260904195055 89 162 1.0 8.0 0.00 0.00 0.00 66 1012.8
20260904194558 89 90 2.0 8.0 0.00 0.00 0.00 67 1012.8
20260904194054 89 161 1.0 5.0 0.00 0.00 0.00 67 1012.8
20260904193557 89 156 2.0 7.0 0.00 0.00 0.00 67 1012.9
20260904193058 88 0 2.0 8.0 0.00 0.00 0.00 68 1012.9
20260904192553 88 124 1.0 8.0 0.00 0.00 0.00 68 1012.9
20260904192054 88 121 1.0 8.0 0.00 0.00 0.00 68 1012.9
20260904191600 88 0 2.0 8.0 0.00 0.00 0.00 68 1013.1
20260904191055 88 113 1.0 8.0 0.00 0.00 0.00 70 1013.2
20260904190552 88 134 0.0 5.0 0.00 0.00 0.00 70 1013.2
20260904185554 87 123 1.0 7.0 0.00 0.00 0.00 71 1013.3
20260904185054 87 0 2.0 7.0 0.00 0.00 0.00 71 1013.3
20260904184616 87 0 2.0 7.0 0.00 0.00 0.00 72 1013.4
20260904184054 87 95 1.0 7.0 0.00 0.00 0.00 72 1013.4
20260904183556 87 127 1.0 7.0 0.00 0.00 0.00 72 1013.4
20260904183057 87 0 2.0 7.0 0.00 0.00 0.00 72 1013.5
20260904182555 86 127 1.0 5.0 0.00 0.00 0.00 72 1013.5
20260904182054 86 89 2.0 6.0 0.00 0.00 0.00 72 1013.4
20260904181601 86 0 1.0 6.0 0.00 0.00 0.00 72 1013.6
20260904181053 86 0 0.0 7.0 0.00 0.00 0.00 73 1013.6
20260904180553 86 119 2.0 7.0 0.00 0.00 0.00 72 1013.7
20260904180105 86 0 1.0 7.0 0.00 0.00 0.00 72 1013.7
20260904175554 86 0 2.0 7.0 0.00 0.00 0.00 72 1013.8
20260904175054 86 173 2.0 6.0 0.00 0.00 0.00 72 1013.8
20260904174601 86 128 1.0 5.0 0.00 0.00 0.00 72 1013.7
20260904174053 86 126 1.0 5.0 0.00 0.00 0.00 72 1013.8
20260904173554 86 131 1.0 9.0 0.00 0.00 0.00 72 1013.9
20260904173110 87 187 3.0 9.0 0.00 0.00 0.00 71 1014.0
20260904172552 87 177 2.0 10.0 0.00 0.00 0.00 71 1014.0
20260904172051 87 130 3.0 10.0 0.00 0.00 0.00 71 1014.0
20260904171600 87 161 2.0 8.0 0.00 0.00 0.00 72 1014.1
20260904171055 87 223 1.0 7.0 0.00 0.00 0.00 73 1014.1
20260904170553 86 150 2.0 8.0 0.00 0.00 0.00 74 1014.1
20260904170101 86 159 2.0 9.0 0.00 0.00 0.00 73 1014.1
20260904165555 86 206 3.0 9.0 0.00 0.00 0.00 73 1014.2
20260904165054 86 156 2.0 8.0 0.00 0.00 0.00 75 1014.2
20260904164602 85 99 2.0 8.0 0.00 0.00 0.00 75 1014.3
20260904164052 85 144 1.0 8.0 0.00 0.00 0.00 76 1014.3
20260904163551 85 157 0.0 7.0 0.00 0.00 0.00 76 1014.4
20260904163104 85 166 2.0 7.0 0.00 0.00 0.00 77 1014.3
20260904162554 85 104 1.0 8.0 0.00 0.00 0.00 77 1014.4
20260904162053 84 194 2.0 8.0 0.00 0.00 0.00 78 1014.4
20260904161606 84 144 1.0 4.0 0.00 0.00 0.00 81 1014.4
20260904161053 83 0 0.0 6.0 0.00 0.00 0.00 82 1014.4
20260904160553 83 160 2.0 6.0 0.00 0.00 0.00 82 1014.4
20260904160107 82 0 0.0 4.0 0.00 0.00 0.00 83 1014.4
20260904155551 82 0 0.0 4.0 0.00 0.00 0.00 84 1014.4
20260904155056 82 0 1.0 4.0 0.00 0.00 0.00 84 1014.3
20260904154616 81 165 0.0 4.0 0.00 0.00 0.00 85 1014.2
20260904154054 81 0 0.0 8.0 0.00 0.00 0.00 85 1014.2
20260904153554 81 198 0.0 8.0 0.00 0.00 0.00 86 1014.1
20260904153103 81 194 3.0 8.0 0.00 0.00 0.00 85 1014.0
20260904152553 81 143 1.0 5.0 0.00 0.00 0.00 86 1014.1
20260904152051 81 0 1.0 5.0 0.00 0.00 0.00 87 1013.9
20260904151602 80 0 1.0 5.0 0.00 0.00 0.00 87 1013.9
20260904151051 80 0 2.0 7.0 0.00 0.00 0.00 88 1013.9
20260904150559 80 189 2.0 7.0 0.00 0.00 0.00 88 1013.9
20260904145554 80 160 1.0 6.0 0.00 0.00 0.00 89 1014.1
20260904145054 80 222 2.0 5.0 0.00 0.00 0.00 89 1013.9
20260904144603 80 174 0.0 6.0 0.00 0.00 0.00 89 1013.9
20260904144052 79 175 3.0 6.0 0.00 0.00 0.00 89 1013.8
20260904143552 79 134 1.0 5.0 0.00 0.00 0.00 90 1013.9
20260904143102 79 155 0.0 4.0 0.00 0.00 0.00 90 1013.9
20260904142553 79 0 0.0 5.0 0.00 0.00 0.00 90 1013.7
20260904142053 79 0 1.0 8.0 0.00 0.00 0.00 90 1013.7
20260904141604 79 0 2.0 8.0 0.00 0.00 0.00 90 1013.8
20260904141054 79 161 2.0 8.0 0.00 0.00 0.00 90 1013.9
20260904140554 79 159 4.0 8.0 0.00 0.00 0.00 90 1013.8
20260904140108 79 142 1.0 7.0 0.00 0.00 0.00 90 1013.8
20260904135554 79 161 1.0 9.0 0.00 0.00 0.00 90 1013.8
20260904135054 78 153 1.0 9.0 0.00 0.00 0.00 91 1013.8
20260904134612 78 164 2.0 9.0 0.00 0.00 0.00 90 1013.6
20260904134053 78 158 2.0 8.0 0.00 0.00 0.00 91 1013.6
20260904133553 78 165 2.0 8.0 0.00 0.00 0.00 91 1013.5
20260904133059 78 139 1.0 4.0 0.00 0.00 0.00 91 1013.6
20260904132552 78 117 1.0 5.0 0.00 0.00 0.00 91 1013.5
20260904132051 78 0 1.0 6.0 0.00 0.00 0.00 91 1013.5
20260904131603 78 0 2.0 6.0 0.00 0.00 0.00 91 1013.4
20260904131051 78 145 2.0 6.0 0.00 0.00 0.00 91 1013.4
20260904130554 78 0 1.0 8.0 0.00 0.00 0.00 91 1013.4
20260904130100 78 0 1.0 8.0 0.00 0.00 0.00 91 1013.3
20260904125554 78 0 2.0 8.0 0.00 0.00 0.00 90 1013.2
20260904125054 78 128 2.0 7.0 0.00 0.00 0.00 91 1013.2
20260904124613 78 0 2.0 6.0 0.00 0.00 0.00 90 1013.3
20260904124053 78 0 1.0 6.0 0.00 0.00 0.00 90 1013.2
20260904123555 78 110 1.0 7.0 0.00 0.00 0.00 90 1013.1
20260904123111 78 132 1.0 7.0 0.00 0.00 0.00 90 1013.0
20260904122553 78 131 1.0 6.0 0.00 0.00 0.00 90 1013.0
20260904122053 78 123 2.0 6.0 0.00 0.00 0.00 90 1013.0
20260904121558 78 116 1.0 5.0 0.00 0.00 0.00 90 1013.0
20260904121054 78 0 0.0 6.0 0.00 0.00 0.00 90 1012.9
20260904120552 78 121 1.0 6.0 0.00 0.00 0.00 90 1012.8
20260904120057 78 108 0.0 6.0 0.00 0.00 0.00 90 1012.9
20260904115555 78 122 1.0 5.0 0.00 0.00 0.00 90 1012.8
20260904115057 78 0 1.0 5.0 0.00 0.00 0.00 90 1012.8
20260904114604 78 153 1.0 5.0 0.00 0.00 0.00 90 1012.7
20260904114054 78 0 0.0 6.0 0.00 0.00 0.00 90 1012.5
20260904113554 78 0 1.0 6.0 0.00 0.00 0.00 89 1012.4
20260904113108 78 0 2.0 5.0 0.00 0.00 0.00 89 1012.4
20260904112551 78 140 0.0 3.0 0.00 0.00 0.00 89 1012.3
20260904112053 78 0 1.0 4.0 0.00 0.00 0.00 89 1012.2
20260904111557 78 0 0.0 4.0 0.00 0.00 0.00 89 1012.3
20260904111053 78 0 0.0 4.0 0.00 0.00 0.00 89 1012.3
20260904110553 78 142 1.0 4.0 0.00 0.00 0.00 89 1012.4
20260904110106 78 138 1.0 4.0 0.00 0.00 0.00 89 1012.3
20260904105555 78 156 1.0 5.0 0.00 0.00 0.00 89 1012.3
20260904105056 78 0 1.0 5.0 0.00 0.00 0.00 89 1012.3
20260904104600 78 145 1.0 5.0 0.00 0.00 0.00 89 1012.3